TimeBST,TemperatureF,Dew PointF,Humidity,Sea Level PressureIn,VisibilityMPH,Wind Direction,Wind SpeedMPH,Gust SpeedMPH,PrecipitationIn,Events,Conditions,WindDirDegrees,DateUTC
12:50 AM,60,59,94,30.28,2,North,6.9,,,,Mist,350,2013-07-14 23:50:00
12:50 AM,60.8,59.0,94,30.27,1.9,North,6.9,-,N/A,,Scattered Clouds,350,2013-07-14 23:50:00
1:50 AM,60,58,91,30.27,2,North,8.1,,,,Mist,350,2013-07-15 00:50:00
1:50 AM,59.0,59.0,100,30.27,1.9,North,8.1,-,N/A,,Scattered Clouds,350,2013-07-15 00:50:00
2:50 AM,59,58,95,30.27,2,NNW,6.9,,,,Mist,340,2013-07-15 01:50:00
2:50 AM,59.0,57.2,94,30.27,2.2,NNW,6.9,-,N/A,,Scattered Clouds,340,2013-07-15 01:50:00
3:50 AM,59,57,92,30.28,2,NNW,4.6,,,,Haze,340,2013-07-15 02:50:00
3:50 AM,59.0,57.2,94,30.27,2.5,NNW,4.6,-,N/A,,Haze,340,2013-07-15 02:50:00
4:50 AM,60,57,88,30.27,2,North,8.1,,,,Haze,350,2013-07-15 03:50:00
4:50 AM,59.0,57.2,94,30.27,2.2,North,8.1,-,N/A,,Haze,350,2013-07-15 03:50:00
5:50 AM,60,57,88,30.28,3,NNW,13.4,,,,Haze,330,2013-07-15 04:50:00
5:50 AM,59.0,57.2,94,30.27,2.8,NNW,6.9,-,N/A,,Haze,330,2013-07-15 04:50:00
6:50 AM,60,57,88,30.28,3,NW,6.9,,,,Haze,320,2013-07-15 05:50:00
6:50 AM,60.8,57.2,88,30.27,3.1,NW,6.9,-,N/A,,Haze,320,2013-07-15 05:50:00
7:50 AM,61,58,85,30.29,4,NW,6.9,,,,Haze,320,2013-07-15 06:50:00
7:50 AM,60.8,57.2,88,30.27,4.3,NW,6.9,-,N/A,,Haze,320,2013-07-15 06:50:00
8:50 AM,63,58,80,30.29,4,NW,6.9,,,,Haze,320,2013-07-15 07:50:00
8:50 AM,62.6,59.0,88,30.27,4.3,NW,6.9,-,N/A,,Haze,320,2013-07-15 07:50:00
9:50 AM,64,58,76,30.29,5,NNW,6.9,,,,Haze,330,2013-07-15 08:50:00
9:50 AM,64.4,59.0,83,30.27,5.0,NNW,6.9,-,N/A,,Haze,330,2013-07-15 08:50:00
10:50 AM,65,59,74,30.29,7,NNW,6.9,,,,Haze,330,2013-07-15 09:50:00
10:50 AM,66.2,59.0,78,30.27,6.2,NNW,6.9,-,N/A,,Haze,330,2013-07-15 09:50:00
11:50 AM,68,60,70,30.29,9,NNW,5.8,,,,Haze,330,2013-07-15 10:50:00
11:50 AM,68.0,60.8,78,30.27,6.2,NNW,5.8,-,N/A,,Haze,330,2013-07-15 10:50:00
12:50 PM,68,58,63,30.29,9,NW,13.4,,,,Haze,320,2013-07-15 11:50:00
12:50 PM,68.0,59.0,73,30.27,6.2,NW,6.9,-,N/A,,Haze,320,2013-07-15 11:50:00
1:50 PM,70,61,65,30.28,9,NNW,6.9,,,,Haze,330,2013-07-15 12:50:00
1:50 PM,69.8,60.8,73,30.27,6.2,NNW,6.9,-,N/A,,Haze,330,2013-07-15 12:50:00
2:50 PM,69,59,63,30.27,9,NNW,6.9,,,,Haze,340,2013-07-15 13:50:00
2:50 PM,69.8,59.0,68,30.27,6.2,NNW,6.9,-,N/A,,Haze,340,2013-07-15 13:50:00
3:50 PM,70,59,61,30.27,9,NNW,8.1,,,,Haze,340,2013-07-15 14:50:00
3:50 PM,69.8,59.0,68,30.27,6.2,NNW,8.1,-,N/A,,Haze,340,2013-07-15 14:50:00
4:50 PM,69,60,66,30.27,9,North,9.2,,,,Haze,0,2013-07-15 15:50:00
4:50 PM,69.8,60.8,73,30.27,6.2,North,9.2,-,N/A,,Haze,360,2013-07-15 15:50:00
5:50 PM,68,60,69,30.26,12,North,12.7,,,,,350,2013-07-15 16:50:00
5:50 PM,68.0,60.8,78,30.24,6.2,North,12.7,-,N/A,,Unknown,350,2013-07-15 16:50:00
6:50 PM,67,60,73,30.26,7,North,11.5,,,,Haze,0,2013-07-15 17:50:00
6:50 PM,66.2,60.8,83,30.24,6.2,North,11.5,-,N/A,,Haze,360,2013-07-15 17:50:00
7:50 PM,65,59,76,30.27,6,North,11.5,,,,Haze,0,2013-07-15 18:50:00
7:50 PM,64.4,59.0,83,30.24,6.2,North,11.5,-,N/A,,Haze,360,2013-07-15 18:50:00
8:50 PM,64,59,77,30.27,7,North,17.9,,,,Haze,0,2013-07-15 19:50:00
8:50 PM,64.4,59.0,83,30.27,6.2,North,9.2,-,N/A,,Haze,360,2013-07-15 19:50:00
9:50 PM,62,58,82,30.27,7,North,8.1,,,,Haze,350,2013-07-15 20:50:00
9:50 PM,62.6,57.2,82,30.27,6.2,North,8.1,-,N/A,,Haze,350,2013-07-15 20:50:00
10:50 PM,61,57,83,30.28,7,North,8.9,,,,Haze,350,2013-07-15 21:50:00
10:50 PM,60.8,57.2,88,30.27,6.2,North,4.6,-,N/A,,Haze,350,2013-07-15 21:50:00
11:50 PM,59,56,86,30.28,7,NNW,4.6,,,,Haze,340,2013-07-15 22:50:00
11:50 PM,59.0,55.4,88,30.27,6.2,NNW,4.6,-,N/A,,Haze,340,2013-07-15 22:50:00